DW4895 Weather Reports


time (UTC)temp
C
wind
direction
speed
KPH
gust
KPH
rain 1hr
cm
rain 24hr
cm
rain mn
cm
humidity
%
barometer
mb
20260504130521 14 215 8.0 32.2 0.00 0.00 0.00 66 1000.5
20260504110520 9 216 0.0 32.2 0.00 0.00 0.00 77 1000.6
20260504100518 8 216 0.0 32.2 0.00 0.00 0.00 80 1001.2
20260504081015 11 216 0.0 32.2 0.00 0.00 0.00 71 1001.6
20260504080515 11 216 0.0 32.2 0.00 0.00 0.00 71 1001.6
20260504050512 14 216 0.0 32.2 0.00 0.00 0.00 62 1003.3
20260504050012 15 216 0.0 32.2 0.00 0.00 0.00 61 1003.3
20260504045511 15 216 0.0 32.2 0.00 0.00 0.00 61 1003.2
20260504044511 15 216 0.0 32.2 0.00 0.00 0.00 61 1003.3
20260504043512 15 216 3.2 32.2 0.00 0.00 0.00 60 1003.3
20260504043011 15 216 4.8 32.2 0.00 0.00 0.00 59 1003.3
20260504042512 15 215 3.2 32.2 0.00 0.00 0.00 59 1003.3
20260504042011 15 215 6.4 32.2 0.00 0.00 0.00 58 1003.2
20260504041510 15 215 0.0 32.2 0.00 0.00 0.00 59 1003.3
20260504041010 15 215 0.0 32.2 0.00 0.00 0.00 59 1003.2
20260504040510 16 215 3.2 32.2 0.00 0.00 0.00 59 1003.3
20260504035510 16 215 8.0 32.2 0.00 0.00 0.00 58 1003.1
20260504035010 16 215 3.2 32.2 0.00 0.00 0.00 58 1003.2
20260504034510 16 215 6.4 32.2 0.00 0.00 0.00 57 1003.2
20260504033510 16 213 0.0 32.2 0.00 0.00 0.00 56 1003.4
20260504032510 16 213 0.0 32.2 0.00 0.00 0.00 56 1003.4
20260504032009 17 213 1.6 32.2 0.00 0.00 0.00 56 1003.4
20260504031509 17 213 6.4 32.2 0.00 0.00 0.00 55 1003.4
20260504031009 17 212 3.2 32.2 0.00 0.00 0.00 55 1003.3
20260504030009 17 212 1.6 32.2 0.00 0.00 0.00 54 1003.3
20260504025009 17 212 9.7 32.2 0.00 0.00 0.00 55 1003.1
20260504024508 17 212 4.8 32.2 0.00 0.00 0.00 53 1003.0
20260504024008 17 212 6.4 32.2 0.00 0.00 0.00 53 1003.0
20260504023508 17 212 11.3 32.2 0.00 0.00 0.00 54 1002.9
20260504023008 17 211 8.0 32.2 0.00 0.00 0.00 54 1002.9
20260504022508 17 211 6.4 32.2 0.00 0.00 0.00 54 1002.8
20260504022008 17 211 9.7 32.2 0.00 0.00 0.00 54 1002.8
20260504021508 18 211 9.7 32.2 0.00 0.00 0.00 54 1002.7
20260504020508 18 211 11.3 32.2 0.00 0.00 0.00 54 1002.6
20260504020007 18 211 6.4 32.2 0.00 0.00 0.00 53 1002.5
20260504015507 18 211 8.0 32.2 0.00 0.00 0.00 53 1002.5
20260504014007 18 211 11.3 32.2 0.00 0.00 0.00 52 1002.3
20260504013507 18 211 12.9 32.2 0.00 0.00 0.00 52 1002.3
20260504013007 19 213 14.5 32.2 0.00 0.00 0.00 51 1002.4
20260504012507 19 213 6.4 32.2 0.00 0.00 0.00 51 1002.4
20260504012007 19 214 14.5 32.2 0.00 0.00 0.00 51 1002.3
20260504011506 19 214 12.9 32.2 0.00 0.00 0.00 50 1002.3
20260504011007 20 215 14.5 32.2 0.00 0.00 0.00 50 1002.3
20260504010006 20 217 14.5 32.2 0.00 0.00 0.00 49 1002.3
20260504005506 20 217 8.0 32.2 0.00 0.00 0.00 49 1002.3
20260504005006 20 216 6.4 32.2 0.00 0.00 0.00 48 1002.2
20260504004006 20 215 11.3 32.2 0.00 0.00 0.00 47 1002.2
20260504003506 20 215 14.5 32.2 0.00 0.00 0.00 48 1002.4
20260504003006 20 217 11.3 32.2 0.00 0.00 0.00 48 1002.5
20260504002005 20 215 11.3 32.2 0.00 0.00 0.00 47 1002.4
20260504001505 21 218 9.7 32.2 0.00 0.00 0.00 47 1002.5
20260504001005 21 217 12.9 32.2 0.00 0.00 0.00 47 1002.6
20260504000505 21 219 12.9 32.2 0.00 0.00 0.00 47 1002.5
20260504000005 21 217 11.3 32.2 0.00 0.00 0.00 46 1002.6
20260503235505 21 213 17.7 32.2 0.00 0.00 0.00 45 1002.5
20260503234505 21 250 11.3 32.2 0.00 0.00 0.00 44 1002.5
20260503234004 21 215 12.9 32.2 0.00 0.00 0.00 45 1002.5
20260503233504 21 225 12.9 32.2 0.00 0.00 0.00 44 1002.5
20260503233004 21 213 16.1 32.2 0.00 0.00 0.00 43 1002.5
20260503232504 21 216 16.1 32.2 0.00 0.00 0.00 43 1002.4
20260503232004 21 215 16.1 32.2 0.00 0.00 0.00 43 1002.5
20260503231504 22 216 8.0 32.2 0.00 0.00 0.00 43 1002.6
20260503231004 21 212 8.0 32.2 0.00 0.00 0.00 44 1002.6
20260503230004 21 211 11.3 32.2 0.00 0.00 0.00 44 1002.6
20260503225004 22 213 11.3 32.2 0.00 0.00 0.00 42 1002.6
20260503224504 22 226 9.7 32.2 0.00 0.00 0.00 41 1002.6
20260503224003 22 232 12.9 32.2 0.00 0.00 0.00 42 1002.6
20260503223503 22 214 14.5 32.2 0.00 0.00 0.00 43 1002.7
20260503223003 22 215 9.7 32.2 0.00 0.00 0.00 42 1002.7
20260503222503 22 207 17.7 32.2 0.00 0.00 0.00 45 1002.7
20260503221002 22 207 14.5 32.2 0.00 0.00 0.00 42 1002.8
20260503220503 22 218 20.9 32.2 0.00 0.00 0.00 44 1002.9
20260503220003 22 214 16.1 32.2 0.00 0.00 0.00 43 1002.9
20260503215503 22 215 17.7 32.2 0.00 0.00 0.00 44 1002.9
20260503215002 22 214 22.5 32.2 0.00 0.00 0.00 44 1003.0
20260503214502 22 225 14.5 32.2 0.00 0.00 0.00 42 1003.1
20260503214003 22 208 12.9 32.2 0.00 0.00 0.00 43 1003.1
20260503213502 22 215 9.7 32.2 0.00 0.00 0.00 43 1003.2
20260503213002 22 263 19.3 32.2 0.00 0.00 0.00 43 1003.2
20260503211502 22 213 16.1 32.2 0.00 0.00 0.00 45 1003.2
20260503211002 22 232 8.0 32.2 0.00 0.00 0.00 44 1003.4
20260503210502 21 217 14.5 32.2 0.00 0.00 0.00 45 1003.4
20260503210001 21 249 12.9 32.2 0.00 0.00 0.00 44 1003.5
20260503205001 21 254 14.5 32.2 0.00 0.00 0.00 42 1003.7
20260503204501 21 267 9.7 32.2 0.00 0.00 0.00 45 1003.6
20260503204001 21 250 6.4 32.2 0.00 0.00 0.00 45 1003.7
20260503203501 21 213 24.1 32.2 0.00 0.00 0.00 44 1003.8
20260503203001 21 239 8.0 32.2 0.00 0.00 0.00 45 1003.8
20260503202500 21 218 17.7 32.2 0.00 0.00 0.00 45 1004.0
20260503201500 21 241 8.0 32.2 0.00 0.00 0.00 47 1004.0
20260503201000 21 215 9.7 32.2 0.00 0.00 0.00 45 1004.1
20260503200500 20 219 19.3 32.2 0.00 0.00 0.00 45 1004.3
20260503200000 21 206 20.9 32.2 0.00 0.00 0.00 44 1004.3
20260503195500 21 221 6.4 32.2 0.00 0.00 0.00 45 1004.4
20260503195000 20 218 24.1 32.2 0.00 0.00 0.00 45 1004.6
20260503194500 20 209 17.7 32.2 0.00 0.00 0.00 46 1004.5
20260503194000 20 257 11.3 32.2 0.00 0.00 0.00 46 1004.7
20260503193459 20 238 9.7 32.2 0.00 0.00 0.00 45 1004.8
20260503192959 20 211 25.7 32.2 0.00 0.00 0.00 45 1004.9
20260503192000 20 237 14.5 32.2 0.00 0.00 0.00 45 1005.0
20260503191459 20 275 16.1 32.2 0.00 0.00 0.00 43 1005.0
20260503190959 20 211 12.9 32.2 0.00 0.00 0.00 45 1005.1
20260503190459 20 292 16.1 32.2 0.00 0.00 0.00 44 1005.2
20260503185459 20 227 20.9 32.2 0.00 0.00 0.00 46 1005.3
20260503184958 19 219 25.7 32.2 0.00 0.00 0.00 44 1005.3
20260503184458 19 224 12.9 32.2 0.00 0.00 0.00 48 1005.5
20260503183958 18 211 20.9 32.2 0.00 0.00 0.00 47 1005.5
20260503183458 18 227 19.3 32.2 0.00 0.00 0.00 46 1005.6
20260503182958 18 213 17.7 32.2 0.00 0.00 0.00 46 1005.6
20260503181457 18 219 24.1 32.2 0.00 0.00 0.00 48 1006.2
20260503180958 18 203 16.1 32.2 0.00 0.00 0.00 47 1006.2
20260503180458 18 224 19.3 32.2 0.00 0.00 0.00 46 1006.2
20260503175957 18 212 24.1 32.2 0.00 0.00 0.00 48 1006.3
20260503175457 18 227 19.3 32.2 0.00 0.00 0.00 48 1006.3
20260503174957 18 216 30.6 32.2 0.00 0.00 0.00 46 1006.4
20260503174457 18 221 32.2 32.2 0.00 0.00 0.00 47 1006.5
20260503173957 18 209 20.9 32.2 0.00 0.00 0.00 45 1006.4
20260503173457 17 202 24.1 32.2 0.00 0.00 0.00 45 1006.6
20260503172957 17 210 30.6 32.2 0.00 0.00 0.00 46 1006.7
20260503172456 17 206 35.4 32.2 0.00 0.00 0.00 46 1006.7
20260503171956 17 209 32.2 32.2 0.00 0.00 0.00 46 1006.8
20260503170956 17 207 19.3 32.2 0.00 0.00 0.00 49 1006.7
20260503170456 17 208 16.1 32.2 0.00 0.00 0.00 48 1006.7
20260503150953 11 227 0.0 32.2 0.00 0.00 0.00 66 1008.9
20260503150524 11 227 0.0 32.2 0.00 0.00 0.00 69 1009.0